Location: Orange
(33.2833°S, 149.1000°E)
Time: 08:53:52
(UTC+11:00)

X-37B - Pass Details

Date: 11 December 2021
Orbit: 334 x 337 km, 45.0° (Epoch: 11 January)

Event Time Altitude Azimuth Distance (km) Brightness Sun altitude
Exits shadow 04:21:55 33° 1° (N) 590 1.1 -15.5°
Maximum altitude 04:22:35 40° 38° (NE) 515 1.1 -15.4°
Drops below altitude 10° 04:25:20 10° 110° (ESE) 1,291 4.4 -14.9°
Sets 04:27:25 0° 117° (ESE) 2,137 6.0 -14.6°
